TimeCDT,TemperatureF,Dew PointF,Humidity,Sea Level PressureIn,VisibilityMPH,Wind Direction,Wind SpeedMPH,Gust SpeedMPH,PrecipitationIn,Events,Conditions,WindDirDegrees,DateUTC
12:15 AM,55.4,50.0,82,30.16,10.0,South,6.9,-,N/A,,Clear,180,2011-10-25 05:15:00
12:35 AM,55.4,50.0,82,30.16,10.0,South,6.9,-,N/A,,Clear,170,2011-10-25 05:35:00
12:55 AM,55.4,48.2,77,30.16,10.0,South,5.8,-,N/A,,Clear,170,2011-10-25 05:55:00
1:15 AM,55.4,48.2,77,30.16,10.0,South,6.9,-,N/A,,Clear,170,2011-10-25 06:15:00
1:35 AM,53.6,48.2,82,30.16,10.0,South,5.8,-,N/A,,Clear,170,2011-10-25 06:35:00
1:55 AM,53.6,48.2,82,30.17,10.0,South,5.8,-,N/A,,Clear,180,2011-10-25 06:55:00
2:15 AM,53.6,46.4,77,30.17,10.0,South,4.6,-,N/A,,Clear,190,2011-10-25 07:15:00
2:35 AM,53.6,46.4,77,30.17,10.0,South,4.6,-,N/A,,Clear,190,2011-10-25 07:35:00
3:15 AM,53.6,46.4,77,30.17,10.0,South,4.6,-,N/A,,Clear,190,2011-10-25 08:15:00
3:35 AM,51.8,46.4,82,30.17,6.0,SSW,5.8,-,N/A,,Clear,200,2011-10-25 08:35:00
3:55 AM,51.8,46.4,82,30.16,7.0,South,5.8,-,N/A,,Clear,190,2011-10-25 08:55:00
4:15 AM,51.8,46.4,82,30.16,3.0,South,4.6,-,N/A,,Clear,180,2011-10-25 09:15:00
4:35 AM,50.0,44.6,82,30.16,2.0,South,5.8,-,N/A,,Clear,180,2011-10-25 09:35:00
4:55 AM,50.0,44.6,82,30.15,2.5,South,5.8,-,N/A,,Clear,170,2011-10-25 09:55:00
5:55 AM,51.8,46.4,82,30.15,8.0,South,6.9,-,N/A,,Clear,180,2011-10-25 10:55:00
6:15 AM,50.0,44.6,82,30.16,5.0,South,6.9,-,N/A,,Clear,190,2011-10-25 11:15:00
6:35 AM,50.0,44.6,82,30.16,7.0,South,5.8,-,N/A,,Clear,170,2011-10-25 11:35:00
6:55 AM,50.0,44.6,82,30.16,3.0,South,5.8,-,0.01,,Clear,180,2011-10-25 11:55:00
7:16 AM,51.8,46.4,82,30.16,2.5,South,10.4,-,N/A,,Clear,180,2011-10-25 12:16:00
7:35 AM,51.8,46.4,82,30.16,2.5,South,11.5,-,N/A,,Clear,170,2011-10-25 12:35:00
7:55 AM,51.8,46.4,82,30.16,3.0,South,9.2,-,N/A,,Clear,170,2011-10-25 12:55:00
8:15 AM,53.6,48.2,82,30.16,5.0,South,9.2,-,N/A,,Clear,180,2011-10-25 13:15:00
8:35 AM,53.6,48.2,82,30.16,7.0,South,9.2,-,N/A,,Clear,180,2011-10-25 13:35:00
8:55 AM,55.4,50.0,82,30.16,10.0,South,11.5,-,N/A,,Clear,180,2011-10-25 13:55:00
9:15 AM,57.2,51.8,82,30.16,10.0,South,15.0,-,N/A,,Clear,190,2011-10-25 14:15:00
9:35 AM,60.8,51.8,72,30.16,10.0,SSW,16.1,-,N/A,,Clear,200,2011-10-25 14:35:00
9:55 AM,60.8,51.8,72,30.15,10.0,South,12.7,-,N/A,,Clear,190,2011-10-25 14:55:00
10:15 AM,62.6,51.8,68,30.15,10.0,South,15.0,18.4,N/A,,Clear,180,2011-10-25 15:15:00
10:35 AM,64.4,51.8,64,30.14,10.0,South,13.8,20.7,N/A,,Clear,180,2011-10-25 15:35:00
10:55 AM,66.2,51.8,60,30.14,10.0,South,18.4,-,N/A,,Clear,190,2011-10-25 15:55:00
11:15 AM,69.8,51.8,53,30.13,10.0,South,15.0,21.9,N/A,,Clear,190,2011-10-25 16:15:00
11:35 AM,71.6,50.0,46,30.13,10.0,South,16.1,24.2,N/A,,Clear,190,2011-10-25 16:35:00
11:55 AM,71.6,48.2,43,30.13,10.0,SSW,19.6,27.6,N/A,,Clear,200,2011-10-25 16:55:00
12:15 PM,71.6,50.0,46,30.12,10.0,SW,18.4,25.3,N/A,,Clear,220,2011-10-25 17:15:00
12:55 PM,73.4,48.2,41,30.09,10.0,South,19.6,24.2,N/A,,Clear,190,2011-10-25 17:55:00
1:35 PM,75.2,48.2,38,30.06,10.0,SSW,16.1,26.5,N/A,,Clear,200,2011-10-25 18:35:00
1:55 PM,77.0,50.0,39,30.05,10.0,South,21.9,26.5,N/A,,Clear,190,2011-10-25 18:55:00
2:15 PM,77.0,50.0,39,30.04,10.0,SSW,18.4,25.3,N/A,,Clear,200,2011-10-25 19:15:00
2:35 PM,78.8,50.0,36,30.03,10.0,SSW,18.4,24.2,N/A,,Clear,210,2011-10-25 19:35:00
2:55 PM,78.8,48.2,34,30.03,10.0,SSW,20.7,-,N/A,,Clear,200,2011-10-25 19:55:00
4:15 PM,78.8,46.4,32,29.99,10.0,South,23.0,27.6,N/A,,Clear,190,2011-10-25 21:15:00
4:35 PM,77.0,46.4,34,29.98,10.0,South,19.6,27.6,N/A,,Clear,190,2011-10-25 21:35:00
4:55 PM,78.8,48.2,34,29.97,10.0,South,16.1,20.7,N/A,,Clear,190,2011-10-25 21:55:00
5:15 PM,77.0,46.4,34,29.97,10.0,South,15.0,-,N/A,,Clear,190,2011-10-25 22:15:00
5:35 PM,75.2,46.4,36,29.95,10.0,South,16.1,-,N/A,,Clear,180,2011-10-25 22:35:00
6:35 PM,69.8,46.4,43,29.95,10.0,South,13.8,-,N/A,,Clear,180,2011-10-25 23:35:00
6:55 PM,68.0,44.6,43,29.96,10.0,South,11.5,-,N/A,,Clear,180,2011-10-25 23:55:00
7:15 PM,66.2,46.4,49,29.96,10.0,South,8.1,-,N/A,,Clear,190,2011-10-26 00:15:00
7:35 PM,66.2,46.4,49,29.96,10.0,South,11.5,-,N/A,,Clear,170,2011-10-26 00:35:00
8:15 PM,64.4,46.4,52,29.96,4.0,South,12.7,-,N/A,,Clear,170,2011-10-26 01:15:00
8:35 PM,64.4,46.4,52,29.95,10.0,South,12.7,-,N/A,,Clear,170,2011-10-26 01:35:00
8:55 PM,64.4,46.4,52,29.96,10.0,South,9.2,-,N/A,,Clear,170,2011-10-26 01:55:00
9:15 PM,62.6,46.4,55,29.96,10.0,South,9.2,-,N/A,,Clear,170,2011-10-26 02:15:00
9:35 PM,62.6,46.4,55,29.96,10.0,South,12.7,-,N/A,,Clear,180,2011-10-26 02:35:00
9:55 PM,62.6,46.4,55,29.95,10.0,South,12.7,-,N/A,,Clear,180,2011-10-26 02:55:00
10:15 PM,62.6,46.4,55,29.95,10.0,South,12.7,-,N/A,,Clear,180,2011-10-26 03:15:00
10:35 PM,60.8,46.4,59,29.96,10.0,South,10.4,-,N/A,,Clear,180,2011-10-26 03:35:00
10:55 PM,60.8,46.4,59,29.95,10.0,South,8.1,-,N/A,,Clear,190,2011-10-26 03:55:00
11:15 PM,60.8,46.4,59,29.95,10.0,SSW,6.9,-,N/A,,Clear,200,2011-10-26 04:15:00
11:35 PM,60.8,46.4,59,29.95,10.0,South,6.9,-,N/A,,Clear,190,2011-10-26 04:35:00
11:55 PM,62.6,46.4,55,29.95,10.0,SSW,5.8,-,N/A,,Clear,210,2011-10-26 04:55:00